Home > Weather > Spartanburg > Past weeks

Flag for U.S.A. Weather for the Past 2 Weeks in Spartanburg, South Carolina, U.S.A.

Now
30 °F

Clear.


Feels Like: 27 °F
Forecast: 30 / 49 °F
Wind: 3 mph from North

Location: Spartanburg Memorial

Current Time: Feb 6, 2016 at 4:25:17 AM

Latest Report: Feb 6, 2016 at 4:15 AM


Visibility: 10 mi

Pressure: 30.40 "Hg

Humidity: 64%

Dew point: 19 °F

Location of SpartanburgLocation

Historic Weather in Spartanburg — Graph

°F

Spartanburg Temperature Yesterday

Maximum temperature yesterday: 46 °F (at 2:15 PM)
Minimum temperature yesterday: 32 °F (at 6:55 AM)
Average temperature yesterday: 39 °F

High & Low Weather Summary for the Past Weeks

 TemperatureHumidityPressure
High66 °F (Feb 1, 4:15 PM)100% (Jan 22, 3:15 AM)30.40 "Hg (Jan 22, 3:15 AM)
Low19 °F (Jan 24, 5:15 AM)15% (Jan 29, 5:15 PM)29.60 "Hg (Jan 23, 1:55 AM)
Average43 °F68%30.03 "Hg
* Reported Jan 22 3:15 AM — Feb 6 3:15 AM, Spartanburg, Weather by CustomWeather, © 2016

Note: Actual official high and low records may vary slightly from our data, if they occured in-between our weather recording intervals... More about our weather records

Advertising

Spartanburg Weather History for the Previous 24 Hours

 ConditionsComfort  
Time TempWeatherWind HumidityBarometerVisibility
3:15 AM
Sat, Feb 6
32 °FClear.3 mph51%30.40 "Hg10 mi
2:55 AM32 °FClear.5 mph51%30.39 "Hg10 mi
2:35 AM32 °FClear.5 mph55%30.38 "Hg10 mi
2:15 AM32 °FClear.5 mph51%30.38 "Hg10 mi
1:55 AM32 °FClear.5 mph55%30.38 "Hg10 mi
1:35 AM32 °FClear.5 mph55%30.38 "Hg10 mi
1:15 AM32 °FClear.5 mph55%30.39 "Hg10 mi
12:55 AM32 °FClear.5 mph55%30.39 "Hg10 mi
12:35 AM32 °FClear.5 mph55%30.39 "Hg10 mi
12:15 AM34 °FClear.5 mph44%30.38 "Hg10 mi
11:55 PM
Fri, Feb 5
34 °FClear.5 mph44%30.38 "Hg10 mi
11:15 PM34 °FClear.No wind44%30.39 "Hg10 mi
10:55 PM36 °FClear.3 mph41%30.39 "Hg10 mi
10:35 PM36 °FClear.5 mph41%30.39 "Hg10 mi
10:15 PM36 °FClear.5 mph41%30.38 "Hg10 mi
9:15 PM36 °FClear.7 mph48%30.37 "Hg10 mi
8:15 PM41 °FClear.5 mph33%30.36 "Hg10 mi
7:35 PM41 °FClear.3 mph31%30.36 "Hg10 mi
7:15 PM37 °FClear.5 mph45%30.35 "Hg10 mi
6:55 PM41 °FClear.3 mph28%30.35 "Hg10 mi
6:15 PM43 °FClear.3 mph29%30.33 "Hg10 mi
5:35 PM45 °FSunny.5 mph23%30.32 "Hg10 mi
5:15 PM46 °FSunny.5 mph21%30.32 "Hg10 mi
4:35 PM46 °FSunny.9 mph21%30.32 "Hg10 mi
4:15 PM46 °FSunny.3 mph23%30.32 "Hg10 mi
3:55 PM46 °FSunny.6 mph21%30.32 "Hg10 mi
3:35 PM46 °FSunny.8 mph23%30.32 "Hg10 mi
3:15 PM46 °FSunny.10 mph21%30.32 "Hg10 mi
2:35 PM46 °FSunny.9 mph23%30.32 "Hg10 mi
2:15 PM46 °FSunny.8 mph23%30.32 "Hg10 mi
1:55 PM45 °FSunny.6 mph23%30.33 "Hg10 mi
1:35 PM45 °FSunny.12 mph25%30.33 "Hg10 mi
1:15 PM45 °FSunny.10 mph25%30.34 "Hg10 mi
12:55 PM45 °FSunny.8 mph25%30.35 "Hg10 mi
12:35 PM45 °FSunny.14 mph25%30.35 "Hg10 mi
12:15 PM43 °FSunny.15 mph26%30.36 "Hg10 mi
11:35 AM41 °FSunny.13 mph28%30.36 "Hg10 mi
11:15 AM41 °FSunny.17 mph28%30.35 "Hg10 mi
10:55 AM41 °FSunny.9 mph31%30.36 "Hg10 mi
10:35 AM39 °FSunny.10 mph33%30.36 "Hg10 mi
10:15 AM37 °FSunny.10 mph35%30.35 "Hg10 mi
9:55 AM37 °FSunny.10 mph35%30.35 "Hg10 mi
9:35 AM36 °FSunny.8 mph41%30.34 "Hg10 mi
9:15 AM36 °FSunny.12 mph41%30.33 "Hg10 mi
8:55 AM36 °FSunny.3 mph41%30.34 "Hg10 mi
8:35 AM34 °FSunny.3 mph44%30.33 "Hg10 mi
8:15 AM34 °FSunny.3 mph44%30.33 "Hg10 mi
7:55 AM32 °FSunny.3 mph55%30.31 "Hg10 mi
7:35 AM32 °FSunny.5 mph51%30.29 "Hg10 mi
7:15 AM32 °FClear.6 mph51%30.27 "Hg10 mi
6:55 AM32 °FClear.6 mph51%30.26 "Hg10 mi
6:35 AM34 °FClear.5 mph48%30.24 "Hg10 mi
6:15 AM34 °FClear.7 mph48%30.23 "Hg10 mi
5:55 AM34 °FClear.7 mph51%30.22 "Hg10 mi
5:35 AM34 °FClear.8 mph48%30.21 "Hg10 mi
5:15 AM34 °FPassing clouds.8 mph51%30.20 "Hg10 mi
4:55 AM36 °FPassing clouds.13 mph48%30.18 "Hg10 mi
4:35 AM36 °FPartly cloudy.9 mph48%30.17 "Hg10 mi
4:15 AM36 °FMostly cloudy.13 mph48%30.17 "Hg10 mi
Weather by CustomWeather, © 2016

See weather overviewHow to use our weather pages